This demonstration page uses our WeatherBlox Daily Observations layout. Learn more.

Left ArrowRight Arrow

39.92423, -83.80882

Hourly Observations for March 24, 2020

Temp ( °F °C ) Dew Point ( °F °C ) Humidity (%) Winds ( mph kmh ) Pressure ( in mb ) Visibility ( mi km ) Precip ( " mm )
12:56 am 00:56 Cloudy 40 4.4 38 3.3 93 93 N 3 6 30.19 1022 10 16.0934 0 0
1:56 am 01:56 Cloudy 40 4.4 36 2.2 86 86 N 3 6 30.19 1022 10 16.0934 0 0
2:56 am 02:56 Cloudy 39 3.9 37 2.8 93 93 Calm 30.19 1022 10 16.0934 0 0
3:56 am 03:56 Cloudy 38 3.3 37 2.8 97 97 E 5 7 30.18 1022 10 16.0934 0 0
4:56 am 04:56 Cloudy 38 3.3 37 2.8 97 97 SE 3 6 30.19 1022 10 16.0934 0 0
5:56 am 05:56 Cloudy 39 3.9 37 2.8 93 93 ESE 7 11 30.17 1022 10 16.0934 0 0
6:56 am 06:56 Cloudy 38 3.3 36 2.2 93 93 E 6 9 30.19 1022 10 16.0934 0 0
7:56 am 07:56 Partly Cloudy 36 2.2 35 1.7 97 97 ENE 5 7 30.2 1023 9 14.48406 0 0
8:56 am 08:56 Partly Cloudy 40 4.4 37 2.8 89 89 ENE 7 11 30.19 1023 10 16.0934 0 0
9:05 am 09:05 Mostly Cloudy 39 4 37 3 93 93 ENE 7 11 30.2 1023 10 16.0934 0 0
9:47 am 09:47 Partly Cloudy 43 6 37 3 81 81 E 10 17 30.16 1021 10 16.0934 0 0
9:56 am 09:56 Mostly Sunny 42 5.6 37 2.8 82 82 E 10 17 30.14 1021 10 16.0934 0 0
10:30 am 10:30 Mostly Cloudy 43 6 37 3 81 81 E 12 19 30.15 1021 10 16.0934 0 0
10:56 am 10:56 Cloudy 44 6.7 38 3.3 79 79 E 13 20 30.14 1021 10 16.0934 0 0
11:56 am 11:56 Mostly Cloudy 45 7.2 39 3.9 80 80 ESE 10 17 30.14 1021 10 16.0934 0 0
12:56 pm 12:56 Cloudy 47 8.3 40 4.4 77 77 E 13 20 30.09 1019 10 16.0934 0 0
1:13 pm 13:13 Cloudy 46 8 39 4 76 76 E 10 17 30.08 1019 10 16.0934 0 0
1:26 pm 13:26 Cloudy 46 8 39 4 76 76 ESE 12 19 30.08 1019 10 16.0934 0 0
1:33 pm 13:33 Cloudy 46 8 39 4 76 76 E 9 15 30.08 1019 10 16.0934 0 0
1:48 pm 13:48 Cloudy 46 8 39 4 76 76 ESE 9 15 30.07 1018 10 16.0934 0 0
1:56 pm 13:56 Cloudy 47 8.3 40 4.4 77 77 ESE 12 19 30.08 1019 10 16.0934 0 0
2:34 pm 14:34 Cloudy 46 8 39 4 76 76 E 12 19 30.06 1018 10 16.0934 0 0
2:56 pm 14:56 Mostly Cloudy 48 8.9 40 4.4 74 74 E 13 20 30.04 1017 10 16.0934 0 0
3:56 pm 15:56 Mostly Cloudy 48 8.9 40 4.4 74 74 E 13 20 30.01 1016 10 16.0934 0 0
4:56 pm 16:56 Cloudy 47 8.3 40 4.4 77 77 E 7 11 30.01 1016 10 16.0934 2.09 53.086
5:56 pm 17:56 Cloudy 47 8.3 39 3.9 74 74 NE 10 17 30 1016 10 16.0934 1.21 30.734
6:56 pm 18:56 Cloudy 46 7.8 40 4.4 79 79 NE 13 20 29.98 1015 10 16.0934 0 0
7:56 pm 19:56 Cloudy 44 6.7 39 3.9 83 83 NE 15 24 29.97 1015 10 16.0934 0 0
8:56 pm 20:56 Cloudy 44 6.7 39 3.9 83 83 NE 9 15 29.99 1016 10 16.0934 0 0
9:56 pm 21:56 Cloudy 43 6.1 39 3.9 86 86 NE 12 19 29.97 1015 10 16.0934 0 0
10:56 pm 22:56 Cloudy with Light Rain 42 5.6 39 3.9 89 89 NE 12 19 29.93 1014 10 16.0934 0.001 0.001
11:56 pm 23:56 Cloudy with Light Rain 42 5.6 39 3.9 89 89 ENE 10 17 29.92 1013 10 16.0934 0.001 0.001

Powered by AerisWeather